Location: Brookview Estates
(36.0476°N, 86.6931°W)
Time: 09:23:12
(UTC+00:00)

FENGYUN 3A - Pass Details

Date: 30 March 2020
Orbit: 823 x 837 km, 98.4° (Epoch: 23 May)

Event Time Altitude Azimuth Distance (km) Brightness Sun altitude
Rises 10:49:47 0° 13° (NNE) 3,380 7.2 -9.9°
Reaches altitude 10° 10:52:09 10° 13° (NNE) 2,441 6.5 -9.4°
Maximum altitude 10:57:34 87° 104° (ESE) 833 3.7 -8.4°
Drops below altitude 10° 11:02:56 10° 193° (SSW) 2,417 5.9 -7.3°
Sets 11:05:16 0° 193° (SSW) 3,344 6.6 -6.8°
